User: anonymous   Login
Location: Unspecified
(0.0000°N, 0.0000°E)
Time: 00:59:26
(UTC+00:00)
Language:

DIAMOND BLUE - Orbit

View from above orbital plane
View from above orbital plane
View from above satellite
View from above satellite

Ground track
Ground track

The orbit data is extracted from the following two-line orbital elements,

1 42786U 17036X   21023.10961685  .00001101  00000-0  49087-4 0  9993
2 42786  97.2726  76.2094 0010876 343.5484  16.5399 15.23406959199256
Epoch (UTC): 23 January 2021 02:37:50
Eccentricity: 0.0010876
inclination: 97.2726°
perigee height: 488 km
apogee height: 503 km
right ascension of ascending node: 76.2094°
argument of perigee: 343.5484°
revolutions per day: 15.23406959
mean anomaly at epoch: 16.5399°
orbit number at epoch: 19925

The dashed part of the orbit path shows where the satellite is in the earth's shadow,  

DLR